Aérodrome :
LOGIN :

S'inscrire | Disclaimer

   EN    FR    IT 

 










Légende :    VFR   VFR Marginal   IFR   IFR Intensif   IFR Très Intensif
Visi : 
Plafond : 
>= 8 km
>= 3000ft
5 à 8 km
1000 à 3000 ft
1500m à 5 km
500 à 1000 ft
800 à 1500m
200 à 500 ft
< 800m
< 200 ft
Symboles :   Orages  Brouillard  Fortes neiges  Fortes précipitations  Vent > 20 kt
SIGMETs :   Divers  Orages  Givrage  Turbulence  Onde Orograph.  Cendres Volcan.







- Altitude de l'aérodrome : 17 ft
- Code IATA : MPL
- Voir les cartes d'approche


LFMT - Montpellier Méditerranée

DERNIER METAR :
  • 242030Z AUTO 16002KT CAVOK 22/17 Q1016 NOSIG

METARs EXPIRÉS :
  • 242000Z AUTO 04002KT CAVOK 22/15 Q1016 NOSIG
  • 241930Z AUTO 00000KT CAVOK 23/15 Q1015 NOSIG
  • 241900Z AUTO VRB03KT CAVOK 24/15 Q1015 NOSIG
  • 241830Z AUTO 22005KT CAVOK 25/13 Q1015 NOSIG
  • 241800Z AUTO 22009KT CAVOK 26/14 Q1015 NOSIG

TAF TAF LFMT
Valide du 24 à 21h jusqu'au 25 à 21h UTC


242000Z 2421/2521 VRB05KT CAVOK
BECMG 2500/2503 02010KT
BECMG 2512/2515 18010KT
ATIS : +33 4 67 13 11 70
Pas de NOTAMs connus pour ce terrain.



MET'MAP, la Météo Aéronautique d'un coup d'oeil ! - Copyright ORBIFLY Décembre 2007 - Disclaimer

ORBIFLY MET'MAP TEAM :

Programmation & Développement : Alexandra Zaïnal
Conception & Développement : Baudouin d'Aumeries
Co-Programmation & Développement : Marc-Olivier Méhu
Soutien technique & logistique : Manuel Goepfert

Contact : metmap@orbifly.com




SOURCES & CREDITS :

   NOAA